Location: Ferchesar
(52.6477°N, 12.4298°E)
Time: 12:42:35
(UTC+01:00)

Altair - Pass Details

Date: 12 December 2021
Orbit: 1501 x 1683 km, 47.2° (Epoch: 20 January)

Event Time Altitude Azimuth Distance (km) Brightness Sun altitude
Rises 17:06:39 0° 270° (W) 4,772 11.4 -10.0°
Reaches altitude 10° 17:09:49 10° 267° (W) 3,762 10.8 -10.4°
Maximum altitude 17:19:04 61° 191° (S) 1,703 7.9 -11.7°
Drops below altitude 10° 17:28:03 10° 114° (ESE) 3,658 9.1 -13.0°
Enters shadow 17:30:12 - 112° (ESE) 4,346 9.4 -13.3°
